[[{"header":{"parameterUnit":"m.s-1","parameterCategory":1,"la1":30.2991,"la2":30.254,"lo1":-89.0895,"lo2":-89.0444,"dy":0.0017,"dx":0.0017,"nx":28,"ny":28,"refTime":"2024-10-03T21:00:00:Z","depth":0,"parameterNumber":2,"parameterNumberName":"U-component_of_WINDS"},"data":[0,0,0,0,0,0,0,0,0,0,0,0,0,0,0,0,0,0,0,0,0,0,0,0,0,0,0,0,0,0,0,0,0,0,0,0,0,0,0,0,0,0,0,0,0,0,0,0,0,0,0,0,0,0,0,0,0,0,-3.4132,-3.4132,0,-3.4147,-3.4147,-3.4147,-3.4027,-3.4023,-3.402,-3.4017,-3.4036,-3.4039,-3.4043,0,0,0,0,0,0,0,0,0,0,0,0,0,-3.4,-3.4003,-3.4132,-3.4132,-3.4132,-3.4147,-3.4147,-3.4148,-3.4027,-3.4023,-3.4019,-3.4015,-3.4034,-3.4039,-3.4043,0,0,0,0,0,0,0,0,0,0,0,0,0,-3.4041,-3.4004,-3.4132,-3.4074,-3.4069,-3.4147,-3.4147,-3.4148,-3.4028,-3.4023,-3.4018,-3.4013,-3.4033,-3.4038,-3.4044,-3.4179,0,0,-3.406,-3.4063,0,0,0,0,0,0,0,0,-3.4039,-3.4046,-3.4082,-3.4078,-3.4073,-3.408,-3.4107,-3.4158,-3.403,-3.4044,-3.4017,-3.4011,-3.4055,-3.4058,-3.4072,-3.418,-3.4181,-3.4061,-3.4064,-3.4067,-3.4068,0,0,0,0,0,0,0,-3.4036,-3.4044,-3.4138,-3.4083,-3.4077,-3.4048,-3.4048,-3.4117,-3.4078,-3.4042,-3.4033,-3.4037,-3.4051,-3.4067,-3.4072,-3.4181,-3.4061,-3.4066,-3.4069,-3.4071,-3.4399,-3.4405,0,0,0,0,0,0,-3.4041,-3.4043,-3.4137,-3.4138,-3.4043,-3.4054,-3.4054,-3.4083,-3.4076,-3.4071,-3.4041,-3.4031,-3.406,-3.4065,-3.4072,-3.423,-3.4067,-3.4072,-3.4075,-3.4394,-3.4401,-3.4406,0,0,0,0,0,0,-3.4038,-3.405,-3.4137,-3.4088,-3.4097,-3.4062,-3.4095,-3.4086,-3.4102,-3.4076,-3.4068,-3.4065,-3.4056,-3.4064,-3.4153,-3.4229,-3.4074,-3.4079,-3.4388,-3.4396,-3.4404,-3.4547,0,0,0,0,0,0,-3.4035,-3.405,-3.4101,-3.409,-3.41,-3.4218,-3.4099,-3.409,-3.4111,-3.4098,-3.4096,-3.4091,-3.4053,-3.4145,-3.4158,-3.4233,-3.4083,-3.4381,-3.4391,-3.4401,-3.4535,-3.4559,-3.4579,0,0,0,0,0,-3.4031,-3.4142,-3.4104,-3.4116,-3.4163,-3.4222,-3.4228,-3.4182,-3.4118,-3.4169,-3.4152,-3.4091,-3.4218,-3.4155,-3.4169,-3.4247,-3.4376,-3.4388,-3.44,-3.4525,-3.4554,-3.4579,0,0,0,0,0,0,-3.4164,-3.4139,-3.4097,-3.4208,-3.4218,-3.4202,-3.4265,-3.4214,-3.4243,-3.423,-3.4172,-3.4173,-3.4271,-3.4267,-3.4198,-3.4377,-3.4286,-3.4301,-3.4376,-3.4403,-3.4425,-3.4425,-3.4088,0,0,0,0,0,-3.4205,-3.4255,-3.4231,-3.4331,-3.4338,-3.4301,-3.4325,-3.4288,-3.4297,-3.4301,-3.429,-3.4302,-3.4343,-3.4373,-3.441,-3.4533,-3.4531,-3.4593,-3.4615,-3.4634,-3.4648,-3.4713,-3.474,-3.4447,-3.4447,-3.4446,0,0,-3.4293,-3.4286,-3.4321,-3.4358,-3.4361,-3.4414,-3.4305,-3.4367,-3.4406,-3.431,-3.4393,-3.4386,-3.4394,-3.4501,-3.4547,-3.4501,-3.4729,-3.4649,-3.4664,-3.4669,-3.4728,-3.4756,-3.4781,-3.4455,-3.4453,-3.4452,0,0,-3.4481,-3.448,-3.4563,-3.4568,-3.4574,-3.4548,-3.4568,-3.4559,-3.455,-3.4632,-3.4561,-3.4607,-3.4681,-3.469,-3.4704,-3.4893,-3.4838,-3.4906,-3.5022,-3.5086,-3.5109,-3.5129,-3.5197,-3.5222,-3.4921,-3.4921,-3.4921,0,-3.4589,-3.4666,-3.4612,-3.4678,-3.4696,-3.461,-3.4694,-3.4701,-3.472,-3.4735,-3.4682,-3.4773,-3.4772,-3.488,-3.4925,-3.4939,-3.4961,-3.4908,-3.511,-3.513,-3.5148,-3.5212,-3.5238,-3.493,-3.4929,-3.4928,-3.4927,0,-3.48,-3.4854,-3.492,-3.4939,-3.4964,-3.5039,-3.4997,-3.5029,-3.4989,-3.4969,-3.5053,-3.5049,-3.5085,-3.5107,-3.5069,-3.5209,-3.518,-3.512,-3.5027,-3.5185,-3.5244,-3.5268,-3.4942,-3.4939,-3.4936,-3.4934,0,0,-3.5074,-3.506,-3.5085,-3.5092,-3.5092,-3.5133,-3.5203,-3.5236,-3.5265,-3.528,-3.5338,-3.5402,-3.5345,-3.5361,-3.5324,-3.538,-3.553,-3.5312,-3.5311,-3.5354,-3.5684,-3.573,-3.576,-3.5492,-3.5497,-3.55,-3.5683,0,-3.5257,-3.5376,-3.5329,-3.5452,-3.5501,-3.5419,-3.548,-3.5487,-3.5469,-3.5509,-3.5489,-3.5536,-3.5458,-3.5467,-3.5518,-3.5501,-3.5596,-3.5487,-3.5547,-3.555,-3.5549,-3.579,-3.584,-3.6013,-3.5706,-3.571,-3.5713,0,-3.5488,-3.5511,-3.5639,-3.5628,-3.5647,-3.5703,-3.5729,-3.5767,-3.5773,-3.5756,-3.5774,-3.5723,-3.5792,-3.5698,-3.5791,-3.5718,-3.574,-3.5735,-3.574,-3.5746,-3.5642,-3.5804,-3.6067,-3.6094,-3.5748,-3.5746,-3.5743,0,-3.5676,-3.5739,-3.5823,-3.5832,-3.5821,-3.5863,-3.586,-3.586,-3.5883,-3.5905,-3.5919,-3.595,-3.5968,-3.5993,-3.5952,-3.5887,-3.6052,-3.5955,-3.6041,-3.6042,-3.6081,-3.608,-3.6353,-3.6093,-3.6092,-3.6092,-3.6091,0,-3.5887,-3.5969,-3.5908,-3.596,-3.6049,-3.5993,-3.6083,-3.6071,-3.6072,-3.6121,-3.6051,-3.6099,-3.6041,-3.6084,-3.6052,-3.6135,-3.6143,-3.6132,-3.6123,-3.6139,-3.6141,-3.6154,-3.6141,-3.6099,-3.6097,-3.6096,-3.6095,0,-3.6114,-3.6076,-3.6163,-3.6145,-3.6142,-3.6209,-3.6193,-3.6241,-3.6217,-3.628,-3.6292,-3.6256,-3.6301,-3.6263,-3.6307,-3.6286,-3.6396,-3.6369,-3.6395,-3.6388,-3.6476,-3.6469,-3.6769,-3.6806,-3.6521,-3.6524,-3.6526,0,-3.6252,-3.6312,-3.63,-3.6327,-3.6329,-3.6374,-3.6396,-3.6342,-3.6368,-3.6378,-3.6425,-3.6464,-3.6493,-3.657,-3.6548,-3.6582,-3.6556,-3.6659,-3.6561,-3.6575,-3.6559,-3.6557,-3.6563,-3.668,-3.6683,-3.6686,-3.6688,0,-3.6501,-3.6478,-3.6512,-3.654,-3.6568,-3.6587,-3.6601,-3.6627,-3.6572,-3.6605,-3.665,-3.6673,-3.6717,-3.6757,-3.6783,-3.6781,-3.6727,-3.6718,-3.674,-3.6759,-3.6771,-3.6766,-3.645,-3.6712,-3.671,-3.6708,-3.6707,-3.6706,-3.6688,-3.6738,-3.6737,-3.6777,-3.6781,-3.6795,-3.6839,-3.682,-3.6856,-3.6888,-3.6854,-3.6909,-3.6911,-3.694,-3.6945,-3.6988,-3.6945,-3.6977,-3.6985,-3.6994,-3.7007,-3.6763,-3.6992,-3.6991,-3.699,-3.699,-3.6989,0,-3.6934,-3.6929,-3.6966,-3.6986,-3.7018,-3.6961,-3.6973,-3.7003,-3.7052,-3.7059,-3.7088,-3.714,-3.7178,-3.7158,-3.7191,-3.7229,-3.7205,-3.724,-3.7238,-3.7238,-3.7043,-3.7021,-3.7259,-3.7259,-3.7259,-3.7259,-3.7259,-3.7259,-3.7066,-3.7147,-3.7125,-3.7208,-3.7201,-3.7254,-3.7266,-3.7279,-3.7283,-3.7344,-3.7375,-3.7361,-3.7357,-3.7389,-3.7421,-3.7414,-3.7431,-3.7475,-3.746,-3.7278,-3.7252,-3.7227,-3.7206,-3.7479,-3.7479,-3.7651,-3.7653,-3.7654]},{"header":{"parameterUnit":"m.s-1","parameterCategory":1,"la1":30.2991,"la2":30.254,"lo1":-89.0895,"lo2":-89.0444,"dy":0.0017,"dx":0.0017,"nx":28,"ny":28,"refTime":"2024-10-03T21:00:00:Z","depth":0,"parameterNumber":3,"parameterNumberName":"V-component_of_WINDS"},"data":[0,0,0,0,0,0,0,0,0,0,0,0,0,0,0,0,0,0,0,0,0,0,0,0,0,0,0,0,0,0,0,0,0,0,0,0,0,0,0,0,0,0,0,0,0,0,0,0,0,0,0,0,0,0,0,0,0,0,-4.26,-4.2601,0,-4.2652,-4.2653,-4.2653,-4.2612,-4.261,-4.2608,-4.2607,-4.2656,-4.2659,-4.2661,0,0,0,0,0,0,0,0,0,0,0,0,0,-4.2461,-4.2464,-4.26,-4.2601,-4.2602,-4.2652,-4.2653,-4.2653,-4.2612,-4.261,-4.2608,-4.2606,-4.2655,-4.2658,-4.2662,0,0,0,0,0,0,0,0,0,0,0,0,0,-4.2518,-4.2465,-4.26,-4.2587,-4.2587,-4.2652,-4.2653,-4.2653,-4.2612,-4.261,-4.2607,-4.2605,-4.2654,-4.2658,-4.2662,-4.2742,0,0,-4.2676,-4.2678,0,0,0,0,0,0,0,0,-4.2515,-4.2523,-4.2589,-4.2588,-4.2588,-4.2623,-4.2621,-4.2683,-4.2613,-4.2603,-4.2607,-4.2603,-4.2647,-4.2651,-4.2667,-4.2744,-4.2746,-4.2676,-4.2679,-4.2681,-4.2682,0,0,0,0,0,0,0,-4.2511,-4.2521,-4.2621,-4.2589,-4.2589,-4.2577,-4.2582,-4.2633,-4.2638,-4.2603,-4.26,-4.2607,-4.2646,-4.2663,-4.2668,-4.2747,-4.2676,-4.268,-4.2683,-4.2684,-4.289,-4.2893,0,0,0,0,0,0,-4.2509,-4.2518,-4.2619,-4.2622,-4.2544,-4.2582,-4.2588,-4.2614,-4.2638,-4.2639,-4.2609,-4.2605,-4.2656,-4.2662,-4.2669,-4.2763,-4.2681,-4.2685,-4.2687,-4.2887,-4.289,-4.2894,0,0,0,0,0,0,-4.2506,-4.2518,-4.2617,-4.2569,-4.2581,-4.2587,-4.2617,-4.2617,-4.2633,-4.2643,-4.2643,-4.2626,-4.2655,-4.2663,-4.2724,-4.2764,-4.2687,-4.2691,-4.2884,-4.2888,-4.2892,-4.2951,0,0,0,0,0,0,-4.2502,-4.2518,-4.2549,-4.257,-4.2584,-4.2672,-4.262,-4.2619,-4.2641,-4.2636,-4.2658,-4.2659,-4.2653,-4.2717,-4.2728,-4.2768,-4.2694,-4.288,-4.2886,-4.2891,-4.2945,-4.2957,-4.2966,0,0,0,0,0,-4.2498,-4.2563,-4.2551,-4.2564,-4.2624,-4.2675,-4.2682,-4.2675,-4.2645,-4.2676,-4.2681,-4.2658,-4.2758,-4.2724,-4.2736,-4.2778,-4.2878,-4.2884,-4.289,-4.2941,-4.2955,-4.2966,0,0,0,0,0,0,-4.2546,-4.2566,-4.2553,-4.2628,-4.265,-4.2668,-4.2707,-4.269,-4.2721,-4.2714,-4.2703,-4.2708,-4.2772,-4.2781,-4.2743,-4.2855,-4.2813,-4.2822,-4.2847,-4.286,-4.287,-4.2866,-4.2698,0,0,0,0,0,-4.2566,-4.2607,-4.2622,-4.2686,-4.2698,-4.2701,-4.2723,-4.2715,-4.2737,-4.2746,-4.2757,-4.2778,-4.2813,-4.2837,-4.2871,-4.2947,-4.295,-4.2981,-4.2992,-4.3,-4.3008,-4.3047,-4.306,-4.2914,-4.2914,-4.2914,0,0,-4.2606,-4.2622,-4.2649,-4.2697,-4.2713,-4.2754,-4.2709,-4.2755,-4.2785,-4.2753,-4.2811,-4.2819,-4.2842,-4.291,-4.2941,-4.292,-4.3049,-4.3008,-4.3015,-4.3018,-4.3055,-4.3068,-4.3081,-4.2919,-4.2918,-4.2917,0,0,-4.2701,-4.2718,-4.2773,-4.2791,-4.2816,-4.2817,-4.283,-4.2851,-4.2855,-4.2914,-4.289,-4.2924,-4.2987,-4.3004,-4.302,-4.312,-4.31,-4.3131,-4.3185,-4.3223,-4.3235,-4.3245,-4.3279,-4.3292,-4.3139,-4.3139,-4.3139,0,-4.2748,-4.2811,-4.2803,-4.2851,-4.2872,-4.2845,-4.29,-4.2917,-4.2951,-4.2966,-4.2942,-4.3019,-4.3032,-4.3103,-4.3127,-4.3142,-4.3155,-4.3129,-4.3234,-4.3244,-4.3253,-4.3286,-4.3299,-4.3143,-4.3142,-4.3142,-4.3142,0,-4.2866,-4.291,-4.2951,-4.2987,-4.3012,-4.3063,-4.3061,-4.3087,-4.3077,-4.308,-4.3139,-4.3154,-4.3189,-4.3206,-4.3196,-4.3275,-4.3261,-4.3236,-4.3193,-4.3271,-4.3301,-4.3314,-4.3148,-4.3147,-4.3146,-4.3145,0,0,-4.2994,-4.3024,-4.3039,-4.3054,-4.3079,-4.3112,-4.3161,-4.3197,-4.3219,-4.3243,-4.3283,-4.3335,-4.3312,-4.3331,-4.3323,-4.3357,-4.3433,-4.3327,-4.3327,-4.3345,-4.3518,-4.3536,-4.3551,-4.3419,-4.3422,-4.3424,-4.3516,0,-4.3089,-4.3175,-4.3169,-4.325,-4.3289,-4.3264,-4.3306,-4.3325,-4.3329,-4.3361,-4.3365,-4.3402,-4.3369,-4.338,-4.3412,-4.3417,-4.3467,-4.341,-4.3454,-4.3456,-4.3449,-4.3567,-4.3587,-4.3673,-4.3528,-4.353,-4.3531,0,-4.3212,-4.3241,-4.3326,-4.3345,-4.3361,-4.3399,-4.343,-4.3463,-4.3483,-4.3483,-4.3504,-4.349,-4.3537,-4.3493,-4.3557,-4.3518,-4.3536,-4.3541,-4.3544,-4.3547,-4.3498,-4.3572,-4.3701,-4.3713,-4.355,-4.3549,-4.3547,0,-4.3295,-4.3356,-4.3414,-4.3427,-4.3451,-4.3478,-4.3489,-4.3507,-4.3528,-4.3555,-4.3568,-4.36,-4.3617,-4.3641,-4.3635,-4.3604,-4.37,-4.3656,-4.3699,-4.37,-4.372,-4.3719,-4.3852,-4.3733,-4.3733,-4.3733,-4.3733,0,-4.3401,-4.3454,-4.3451,-4.3487,-4.3544,-4.3536,-4.3592,-4.3599,-4.3616,-4.3651,-4.3631,-4.3664,-4.3654,-4.3687,-4.3682,-4.3735,-4.3743,-4.3743,-4.3741,-4.3744,-4.3744,-4.3755,-4.3748,-4.3736,-4.3736,-4.3735,-4.3734,0,-4.3503,-4.3504,-4.3566,-4.3583,-4.3588,-4.3629,-4.3643,-4.3676,-4.3677,-4.3722,-4.3732,-4.3734,-4.3771,-4.3768,-4.3809,-4.3806,-4.387,-4.3862,-4.3864,-4.3862,-4.3905,-4.39,-4.4049,-4.4068,-4.3938,-4.3939,-4.394,0,-4.3571,-4.3611,-4.3632,-4.3655,-4.3667,-4.3704,-4.3726,-4.3718,-4.3741,-4.3767,-4.3796,-4.3831,-4.3859,-4.3919,-4.3923,-4.3954,-4.3945,-4.3995,-4.395,-4.3951,-4.3944,-4.3942,-4.3945,-4.4004,-4.4005,-4.4007,-4.4008,0,-4.369,-4.3688,-4.3721,-4.3754,-4.378,-4.3805,-4.3828,-4.3847,-4.3841,-4.3868,-4.3906,-4.3927,-4.3969,-4.4004,-4.4033,-4.4042,-4.4023,-4.4022,-4.4033,-4.4037,-4.4036,-4.4036,-4.3887,-4.4018,-4.4017,-4.4017,-4.4016,-4.4016,-4.3776,-4.381,-4.383,-4.3866,-4.3883,-4.3904,-4.3935,-4.3941,-4.3973,-4.4007,-4.4,-4.4042,-4.406,-4.4097,-4.4109,-4.4141,-4.4122,-4.414,-4.4144,-4.4148,-4.4152,-4.4032,-4.4146,-4.4146,-4.4146,-4.4145,-4.4145,0,-4.3893,-4.3905,-4.3939,-4.3971,-4.3999,-4.398,-4.4004,-4.4028,-4.4066,-4.4085,-4.4112,-4.4155,-4.4188,-4.4195,-4.4226,-4.425,-4.4242,-4.4258,-4.4256,-4.4258,-4.4167,-4.4154,-4.4264,-4.4264,-4.4264,-4.4264,-4.4264,-4.4264,-4.3958,-4.4013,-4.4013,-4.4076,-4.4086,-4.4128,-4.4143,-4.4162,-4.4177,-4.4225,-4.4253,-4.4258,-4.4271,-4.4303,-4.4331,-4.4332,-4.4344,-4.4364,-4.4361,-4.4276,-4.4264,-4.4253,-4.424,-4.4366,-4.4367,-4.4449,-4.4449,-4.445]}]]